Year,Month,Day,Hour,Minute,Value (Times are PST for temperature in C)
2018,08,20,00,00,14.70
2018,08,20,00,01,14.70
2018,08,20,00,02,14.80
2018,08,20,00,03,14.80
2018,08,20,00,04,14.80
2018,08,20,00,05,14.80
2018,08,20,00,06,14.90
2018,08,20,00,07,14.90
2018,08,20,00,08,14.90
2018,08,20,00,09,14.90
2018,08,20,00,10,14.90
2018,08,20,00,11,14.90
2018,08,20,00,12,14.90
2018,08,20,00,13,14.90
2018,08,20,00,14,14.90
2018,08,20,00,15,14.90
2018,08,20,00,16,14.90
2018,08,20,00,17,14.90
2018,08,20,00,18,14.90
2018,08,20,00,19,14.90
2018,08,20,00,20,14.90
2018,08,20,00,21,14.90
2018,08,20,00,22,14.90
2018,08,20,00,23,14.90
2018,08,20,00,24,14.90
2018,08,20,00,25,14.90
2018,08,20,00,26,14.90
2018,08,20,00,27,14.90
2018,08,20,00,28,14.90
2018,08,20,00,29,14.90
2018,08,20,00,30,14.90
2018,08,20,00,31,14.90
2018,08,20,00,32,14.90
2018,08,20,00,33,14.90
2018,08,20,00,34,14.90
2018,08,20,00,35,15.00
2018,08,20,00,36,15.00
2018,08,20,00,37,15.00
2018,08,20,00,38,15.00
2018,08,20,00,39,15.00
2018,08,20,00,40,15.10
2018,08,20,00,41,15.10
2018,08,20,00,42,15.10
2018,08,20,00,43,15.10
2018,08,20,00,44,15.10
2018,08,20,00,45,15.10
2018,08,20,00,46,15.10
2018,08,20,00,47,15.10
2018,08,20,00,48,15.20
2018,08,20,00,49,15.20
2018,08,20,00,50,15.20
2018,08,20,00,51,15.30
2018,08,20,00,52,15.30
2018,08,20,00,53,15.30
2018,08,20,00,54,15.30
2018,08,20,00,55,15.30
2018,08,20,00,56,15.30
2018,08,20,00,57,15.30
2018,08,20,00,58,15.30
2018,08,20,00,59,15.30
2018,08,20,01,00,15.30
2018,08,20,01,01,15.30
2018,08,20,01,02,15.30
2018,08,20,01,03,15.30
2018,08,20,01,04,15.30
2018,08,20,01,05,15.30
2018,08,20,01,06,15.30
2018,08,20,01,07,15.30
2018,08,20,01,08,15.30
2018,08,20,01,09,15.20
2018,08,20,01,10,15.20
2018,08,20,01,11,15.20
2018,08,20,01,12,15.20
2018,08,20,01,13,15.20
2018,08,20,01,14,15.20
2018,08,20,01,15,15.10
2018,08,20,01,16,15.10
2018,08,20,01,17,15.10
2018,08,20,01,18,15.10
2018,08,20,01,19,15.10
2018,08,20,01,20,15.10
2018,08,20,01,21,15.00
2018,08,20,01,22,15.00
2018,08,20,01,23,15.00
2018,08,20,01,24,15.00
2018,08,20,01,25,14.90
2018,08,20,01,26,14.90
2018,08,20,01,27,14.80
2018,08,20,01,28,14.80
2018,08,20,01,29,14.70
2018,08,20,01,30,14.60
2018,08,20,01,31,14.50
2018,08,20,01,32,14.50
2018,08,20,01,33,14.40
2018,08,20,01,34,14.30
2018,08,20,01,35,14.20
2018,08,20,01,36,14.20
2018,08,20,01,37,14.20
2018,08,20,01,38,14.20
2018,08,20,01,39,14.20
2018,08,20,01,40,14.10
2018,08,20,01,41,14.10
2018,08,20,01,42,14.10
2018,08,20,01,43,14.00
2018,08,20,01,44,14.00
2018,08,20,01,45,14.00
2018,08,20,01,46,14.00
2018,08,20,01,47,13.90
2018,08,20,01,48,13.90
2018,08,20,01,49,13.90
2018,08,20,01,50,13.90
2018,08,20,01,51,13.80
2018,08,20,01,52,13.80
2018,08,20,01,53,13.80
2018,08,20,01,54,13.80
2018,08,20,01,55,13.80
2018,08,20,01,56,13.80
2018,08,20,01,57,13.80
2018,08,20,01,58,13.70
2018,08,20,01,59,13.70
2018,08,20,02,00,13.70
2018,08,20,02,01,13.70
2018,08,20,02,02,13.70
2018,08,20,02,03,13.70
2018,08,20,02,04,13.70
2018,08,20,02,05,13.70
2018,08,20,02,06,13.70
2018,08,20,02,07,13.70
2018,08,20,02,08,13.70
2018,08,20,02,09,13.70
2018,08,20,02,10,13.70
2018,08,20,02,11,13.60
2018,08,20,02,12,13.60
2018,08,20,02,13,13.60
2018,08,20,02,14,13.60
2018,08,20,02,15,13.50
2018,08,20,02,16,13.40
2018,08,20,02,17,13.40
2018,08,20,02,18,13.30
2018,08,20,02,19,13.30
2018,08,20,02,20,13.30
2018,08,20,02,21,13.20
2018,08,20,02,22,13.20
2018,08,20,02,23,13.10
2018,08,20,02,24,13.10
2018,08,20,02,25,13.10
2018,08,20,02,26,13.00
2018,08,20,02,27,13.00
2018,08,20,02,28,13.00
2018,08,20,02,29,12.90
2018,08,20,02,30,12.90
2018,08,20,02,31,12.80
2018,08,20,02,32,12.80
2018,08,20,02,33,12.80
2018,08,20,02,34,12.80
2018,08,20,02,35,12.80
2018,08,20,02,36,12.70
2018,08,20,02,37,12.70
2018,08,20,02,38,12.70
2018,08,20,02,39,12.70
2018,08,20,02,40,12.70
2018,08,20,02,41,12.70
2018,08,20,02,42,12.60
2018,08,20,02,43,12.60
2018,08,20,02,44,12.60
2018,08,20,02,45,12.60
2018,08,20,02,46,12.60
2018,08,20,02,47,12.60
2018,08,20,02,48,12.50
2018,08,20,02,49,12.50
2018,08,20,02,50,12.50
2018,08,20,02,51,12.50
2018,08,20,02,52,12.50
2018,08,20,02,53,12.50
2018,08,20,02,54,12.50
2018,08,20,02,55,12.50
2018,08,20,02,56,12.50
2018,08,20,02,57,12.40
2018,08,20,02,58,12.40
2018,08,20,02,59,12.40
2018,08,20,03,00,12.40
2018,08,20,03,01,12.40
2018,08,20,03,02,12.40
2018,08,20,03,03,12.40
2018,08,20,03,04,12.40
2018,08,20,03,05,12.50
2018,08,20,03,06,12.50
2018,08,20,03,07,12.50
2018,08,20,03,08,12.50
2018,08,20,03,09,12.50
2018,08,20,03,10,12.50
2018,08,20,03,11,12.50
2018,08,20,03,12,12.50
2018,08,20,03,13,12.50
2018,08,20,03,14,12.50
2018,08,20,03,15,12.50
2018,08,20,03,16,12.40
2018,08,20,03,17,12.40
2018,08,20,03,18,12.40
2018,08,20,03,19,12.40
2018,08,20,03,20,12.40
2018,08,20,03,21,12.40
2018,08,20,03,22,12.40
2018,08,20,03,23,12.30
2018,08,20,03,24,12.30
2018,08,20,03,25,12.30
2018,08,20,03,26,12.30
2018,08,20,03,27,12.30
2018,08,20,03,28,12.30
2018,08,20,03,29,12.30
2018,08,20,03,30,12.30
2018,08,20,03,31,12.30
2018,08,20,03,32,12.30
2018,08,20,03,33,12.30
2018,08,20,03,34,12.30
2018,08,20,03,35,12.30
2018,08,20,03,36,12.30
2018,08,20,03,37,12.30
2018,08,20,03,38,12.30
2018,08,20,03,39,12.30
2018,08,20,03,40,12.30
2018,08,20,03,41,12.30
2018,08,20,03,42,12.30
2018,08,20,03,43,12.30
2018,08,20,03,44,12.30
2018,08,20,03,45,12.30
2018,08,20,03,46,12.30
2018,08,20,03,47,12.30
2018,08,20,03,48,12.30
2018,08,20,03,49,12.30
2018,08,20,03,50,12.30
2018,08,20,03,51,12.30
2018,08,20,03,52,12.30
2018,08,20,03,53,12.30
2018,08,20,03,54,12.40
2018,08,20,03,55,12.40
2018,08,20,03,56,12.40
2018,08,20,03,57,12.40
2018,08,20,03,58,12.40
2018,08,20,03,59,12.40
2018,08,20,04,00,12.40
2018,08,20,04,01,12.40
2018,08,20,04,02,12.40
2018,08,20,04,03,12.40
2018,08,20,04,04,12.40
2018,08,20,04,05,12.40
2018,08,20,04,06,12.40
2018,08,20,04,07,12.40
2018,08,20,04,08,12.40
2018,08,20,04,09,12.50
2018,08,20,04,10,12.50
2018,08,20,04,11,12.50
2018,08,20,04,12,12.50
2018,08,20,04,13,12.60
2018,08,20,04,14,12.60
2018,08,20,04,15,12.60
2018,08,20,04,16,12.60
2018,08,20,04,17,12.60
2018,08,20,04,18,12.60
2018,08,20,04,19,12.60
2018,08,20,04,20,12.60
2018,08,20,04,21,12.50
2018,08,20,04,22,12.50
2018,08,20,04,23,12.50
2018,08,20,04,24,12.50
2018,08,20,04,25,12.50
2018,08,20,04,26,12.50
2018,08,20,04,27,12.50
2018,08,20,04,28,12.50
2018,08,20,04,29,12.50
2018,08,20,04,30,12.50
2018,08,20,04,31,12.50
2018,08,20,04,32,12.50
2018,08,20,04,33,12.50
2018,08,20,04,34,12.50
2018,08,20,04,35,12.40
2018,08,20,04,36,12.40
2018,08,20,04,37,12.40
2018,08,20,04,38,12.40
2018,08,20,04,39,12.30
2018,08,20,04,40,12.30
2018,08,20,04,41,12.30
2018,08,20,04,42,12.30
2018,08,20,04,43,12.30
2018,08,20,04,44,12.30
2018,08,20,04,45,12.20
2018,08,20,04,46,12.20
2018,08,20,04,47,12.20
2018,08,20,04,48,12.20
2018,08,20,04,49,12.20
2018,08,20,04,50,12.20
2018,08,20,04,51,12.20
2018,08,20,04,52,12.20
2018,08,20,04,53,12.20
2018,08,20,04,54,12.20
2018,08,20,04,55,12.20
2018,08,20,04,56,12.20
2018,08,20,04,57,12.20
2018,08,20,04,58,12.20
2018,08,20,04,59,12.20
2018,08,20,05,00,12.20
2018,08,20,05,01,12.20
2018,08,20,05,02,12.20
2018,08,20,05,03,12.20
2018,08,20,05,04,12.20
2018,08,20,05,05,12.20
2018,08,20,05,06,12.20
2018,08,20,05,07,12.20
2018,08,20,05,08,12.20
2018,08,20,05,09,12.20
2018,08,20,05,10,12.20
2018,08,20,05,11,12.20
2018,08,20,05,12,12.20
2018,08,20,05,13,12.30
2018,08,20,05,14,12.30
2018,08,20,05,15,12.30
2018,08,20,05,16,12.30
2018,08,20,05,17,12.30
2018,08,20,05,18,12.30
2018,08,20,05,19,12.30
2018,08,20,05,20,12.30
2018,08,20,05,21,12.30
2018,08,20,05,22,12.30
2018,08,20,05,23,12.30
2018,08,20,05,24,12.20
2018,08,20,05,25,12.20
2018,08,20,05,26,12.20
2018,08,20,05,27,12.20
2018,08,20,05,28,12.20
2018,08,20,05,29,12.30
2018,08,20,05,30,12.30
2018,08,20,05,31,12.30
2018,08,20,05,32,12.30
2018,08,20,05,33,12.30
2018,08,20,05,34,12.30
2018,08,20,05,35,12.30
2018,08,20,05,36,12.30
2018,08,20,05,37,12.30
2018,08,20,05,38,12.40
2018,08,20,05,39,12.40
2018,08,20,05,40,12.30
2018,08,20,05,41,12.30
2018,08,20,05,42,12.30
2018,08,20,05,43,12.30
2018,08,20,05,44,12.30
2018,08,20,05,45,12.40
2018,08,20,05,46,12.40
2018,08,20,05,47,12.40
2018,08,20,05,48,12.30
2018,08,20,05,49,12.30
2018,08,20,05,50,12.30
2018,08,20,05,51,12.30
2018,08,20,05,52,12.30
2018,08,20,05,53,12.30
2018,08,20,05,54,12.30
2018,08,20,05,55,12.30
2018,08,20,05,56,12.30
2018,08,20,05,57,12.30
2018,08,20,05,58,12.20
2018,08,20,05,59,12.30
2018,08,20,06,00,12.30
2018,08,20,06,01,12.20
2018,08,20,06,02,12.20
2018,08,20,06,03,12.30
2018,08,20,06,04,12.30
2018,08,20,06,05,12.30
2018,08,20,06,06,12.40
2018,08,20,06,07,12.40
2018,08,20,06,08,12.40
2018,08,20,06,09,12.40
2018,08,20,06,10,12.40
2018,08,20,06,11,12.40
2018,08,20,06,12,12.40
2018,08,20,06,13,12.40
2018,08,20,06,14,12.40
2018,08,20,06,15,12.40
2018,08,20,06,16,12.40
2018,08,20,06,17,12.40
2018,08,20,06,18,12.30
2018,08,20,06,19,12.30
2018,08,20,06,20,12.30
2018,08,20,06,21,12.30
2018,08,20,06,22,12.30
2018,08,20,06,23,12.30
2018,08,20,06,24,12.30
2018,08,20,06,25,12.30
2018,08,20,06,26,12.30
2018,08,20,06,27,12.30
2018,08,20,06,28,12.30
2018,08,20,06,29,12.40
2018,08,20,06,30,12.40
2018,08,20,06,31,12.30
2018,08,20,06,32,12.30
2018,08,20,06,33,12.30
2018,08,20,06,34,12.30
2018,08,20,06,35,12.20
2018,08,20,06,36,12.20
2018,08,20,06,37,12.20
2018,08,20,06,38,12.30
2018,08,20,06,39,12.30
2018,08,20,06,40,12.30
2018,08,20,06,41,12.30
2018,08,20,06,42,12.30
2018,08,20,06,43,12.30
2018,08,20,06,44,12.30
2018,08,20,06,45,12.30
2018,08,20,06,46,12.30
2018,08,20,06,47,12.30
2018,08,20,06,48,12.30
2018,08,20,06,49,12.30
2018,08,20,06,50,12.30
2018,08,20,06,51,12.20
2018,08,20,06,52,12.20
2018,08,20,06,53,12.20
2018,08,20,06,54,12.20
2018,08,20,06,55,12.20
2018,08,20,06,56,12.20
2018,08,20,06,57,12.20
2018,08,20,06,58,12.20
2018,08,20,06,59,12.20
2018,08,20,07,00,12.20
2018,08,20,07,01,12.20
2018,08,20,07,02,12.20
2018,08,20,07,03,12.10
2018,08,20,07,04,12.10
2018,08,20,07,05,12.10
2018,08,20,07,06,12.10
2018,08,20,07,07,12.10
2018,08,20,07,08,12.10
2018,08,20,07,09,12.10
2018,08,20,07,10,12.10
2018,08,20,07,11,12.10
2018,08,20,07,12,12.10
2018,08,20,07,13,12.10
2018,08,20,07,14,12.10
2018,08,20,07,15,12.10
2018,08,20,07,16,12.10
2018,08,20,07,17,12.10
2018,08,20,07,18,12.10
2018,08,20,07,19,12.10
2018,08,20,07,20,12.10
2018,08,20,07,21,12.00
2018,08,20,07,22,12.00
2018,08,20,07,23,12.00
2018,08,20,07,24,12.00
2018,08,20,07,25,12.00
2018,08,20,07,26,12.10
2018,08,20,07,27,12.10
2018,08,20,07,28,12.10
2018,08,20,07,29,12.10
2018,08,20,07,30,12.20
2018,08,20,07,31,12.20
2018,08,20,07,32,12.20
2018,08,20,07,33,12.20
2018,08,20,07,34,12.20
2018,08,20,07,35,12.20
2018,08,20,07,36,12.30
2018,08,20,07,37,12.30
2018,08,20,07,38,12.30
2018,08,20,07,39,12.30
2018,08,20,07,40,12.30
2018,08,20,07,41,12.30
2018,08,20,07,42,12.30
2018,08,20,07,43,12.30
2018,08,20,07,44,12.30
2018,08,20,07,45,12.30
2018,08,20,07,46,12.30
2018,08,20,07,47,12.30
2018,08,20,07,48,12.30
2018,08,20,07,49,12.40
2018,08,20,07,50,12.40
2018,08,20,07,51,12.40
2018,08,20,07,52,12.40
2018,08,20,07,53,12.40
2018,08,20,07,54,12.50
2018,08,20,07,55,12.50
2018,08,20,07,56,12.50
2018,08,20,07,57,12.50
2018,08,20,07,58,12.60
2018,08,20,07,59,12.60
2018,08,20,08,00,12.60
2018,08,20,08,01,12.70
2018,08,20,08,02,12.70
2018,08,20,08,03,12.80
2018,08,20,08,04,12.80
2018,08,20,08,05,12.80
2018,08,20,08,06,12.80
2018,08,20,08,07,12.90
2018,08,20,08,08,12.90
2018,08,20,08,09,12.90
2018,08,20,08,10,13.00
2018,08,20,08,11,13.00
2018,08,20,08,12,13.00
2018,08,20,08,13,13.10
2018,08,20,08,14,13.20
2018,08,20,08,15,13.30
2018,08,20,08,16,13.30
2018,08,20,08,17,13.30
2018,08,20,08,18,13.30
2018,08,20,08,19,13.50
2018,08,20,08,20,13.50
2018,08,20,08,21,13.50
2018,08,20,08,22,13.60
2018,08,20,08,23,13.60
2018,08,20,08,24,13.60
2018,08,20,08,25,13.70
2018,08,20,08,26,13.70
2018,08,20,08,27,13.70
2018,08,20,08,28,13.70
2018,08,20,08,29,13.70
2018,08,20,08,30,13.70
2018,08,20,08,31,13.80
2018,08,20,08,32,13.80
2018,08,20,08,33,13.90
2018,08,20,08,34,13.90
2018,08,20,08,35,13.90
2018,08,20,08,36,14.00
2018,08,20,08,37,14.00
2018,08,20,08,38,14.10
2018,08,20,08,39,14.10
2018,08,20,08,40,14.10
2018,08,20,08,41,14.20
2018,08,20,08,42,14.20
2018,08,20,08,43,14.20
2018,08,20,08,44,14.20
2018,08,20,08,45,14.20
2018,08,20,08,46,14.30
2018,08,20,08,47,14.30
2018,08,20,08,48,14.40
2018,08,20,08,49,14.40
2018,08,20,08,50,14.40
2018,08,20,08,51,14.50
2018,08,20,08,52,14.50
2018,08,20,08,53,14.60
2018,08,20,08,54,14.60
2018,08,20,08,55,14.60
2018,08,20,08,56,14.70
2018,08,20,08,57,14.70
2018,08,20,08,58,14.70
2018,08,20,08,59,14.80
2018,08,20,09,00,14.80
2018,08,20,09,01,14.80
2018,08,20,09,02,14.80
2018,08,20,09,03,14.80
2018,08,20,09,04,14.90
2018,08,20,09,05,14.90
2018,08,20,09,06,15.00
2018,08,20,09,07,15.00
2018,08,20,09,08,15.10
2018,08,20,09,09,15.10
2018,08,20,09,10,15.20
2018,08,20,09,11,15.20
2018,08,20,09,12,15.30
2018,08,20,09,13,15.30
2018,08,20,09,14,15.40
2018,08,20,09,15,15.40
2018,08,20,09,16,15.50
2018,08,20,09,17,15.50
2018,08,20,09,18,15.60
2018,08,20,09,19,15.70
2018,08,20,09,20,15.70
2018,08,20,09,21,15.80
2018,08,20,09,22,15.80
2018,08,20,09,23,15.90
2018,08,20,09,24,15.90
2018,08,20,09,25,15.90
2018,08,20,09,26,16.00
2018,08,20,09,27,16.10
2018,08,20,09,28,16.10
2018,08,20,09,29,16.10
2018,08,20,09,30,16.10
2018,08,20,09,31,16.10
2018,08,20,09,32,16.10
2018,08,20,09,33,16.20
2018,08,20,09,34,16.20
2018,08,20,09,35,16.20
2018,08,20,09,36,16.20
2018,08,20,09,37,16.30
2018,08,20,09,38,16.30
2018,08,20,09,39,16.30
2018,08,20,09,40,16.40
2018,08,20,09,41,16.40
2018,08,20,09,42,16.50
2018,08,20,09,43,16.60
2018,08,20,09,44,16.70
2018,08,20,09,45,16.70
2018,08,20,09,46,16.80
2018,08,20,09,47,16.90
2018,08,20,09,48,17.00
2018,08,20,09,49,17.00
2018,08,20,09,50,17.20
2018,08,20,09,51,17.30
2018,08,20,09,52,17.30
2018,08,20,09,53,17.30
2018,08,20,09,54,17.40
2018,08,20,09,55,17.50
2018,08,20,09,56,17.50
2018,08,20,09,57,17.60
2018,08,20,09,58,17.60
2018,08,20,09,59,17.70
2018,08,20,10,00,17.70
2018,08,20,10,01,17.80
2018,08,20,10,02,17.90
2018,08,20,10,03,17.90
2018,08,20,10,04,18.00
2018,08,20,10,05,18.10
2018,08,20,10,06,18.10
2018,08,20,10,07,18.20
2018,08,20,10,08,18.20
2018,08,20,10,09,18.30
2018,08,20,10,10,18.40
2018,08,20,10,11,18.50
2018,08,20,10,12,18.60
2018,08,20,10,13,18.60
2018,08,20,10,14,18.70
2018,08,20,10,15,18.80
2018,08,20,10,16,18.90
2018,08,20,10,17,18.90
2018,08,20,10,18,18.90
2018,08,20,10,19,19.00
2018,08,20,10,20,19.10
2018,08,20,10,21,19.10
2018,08,20,10,22,19.10
2018,08,20,10,23,19.20
2018,08,20,10,24,19.20
2018,08,20,10,25,19.30
2018,08,20,10,26,19.30
2018,08,20,10,27,19.40
2018,08,20,10,28,19.40
2018,08,20,10,29,19.50
2018,08,20,10,30,19.60
2018,08,20,10,31,19.60
2018,08,20,10,32,19.60
2018,08,20,10,33,19.60
2018,08,20,10,34,19.60
2018,08,20,10,35,19.60
2018,08,20,10,36,19.60
2018,08,20,10,37,19.50
2018,08,20,10,38,19.50
2018,08,20,10,39,19.50
2018,08,20,10,40,19.50
2018,08,20,10,41,19.50
2018,08,20,10,42,19.50
2018,08,20,10,43,19.60
2018,08,20,10,44,19.60
2018,08,20,10,45,19.60
2018,08,20,10,46,19.60
2018,08,20,10,47,19.50
2018,08,20,10,48,19.50
2018,08,20,10,49,19.50
2018,08,20,10,50,19.50
2018,08,20,10,51,19.50
2018,08,20,10,52,19.50
2018,08,20,10,53,19.50
2018,08,20,10,54,19.50
2018,08,20,10,55,19.50
2018,08,20,10,56,19.50
2018,08,20,10,57,19.40
2018,08,20,10,58,19.40
2018,08,20,10,59,19.40
2018,08,20,11,00,19.40
2018,08,20,11,01,19.50
2018,08,20,11,02,19.60
2018,08,20,11,03,19.60
2018,08,20,11,04,19.60
2018,08,20,11,05,19.60
2018,08,20,11,06,19.60
2018,08,20,11,07,19.60
2018,08,20,11,08,19.60
2018,08,20,11,09,19.60
2018,08,20,11,10,19.60
2018,08,20,11,11,19.60
2018,08,20,11,12,19.60
2018,08,20,11,13,19.70
2018,08,20,11,14,19.80
2018,08,20,11,15,19.80
2018,08,20,11,16,19.90
2018,08,20,11,17,19.80
2018,08,20,11,18,19.90
2018,08,20,11,19,19.90
2018,08,20,11,20,19.90
2018,08,20,11,21,19.90
2018,08,20,11,22,19.90
2018,08,20,11,23,20.10
2018,08,20,11,24,20.10
2018,08,20,11,25,20.10
2018,08,20,11,26,20.20
2018,08,20,11,27,20.20
2018,08,20,11,28,20.20
2018,08,20,11,29,20.30
2018,08,20,11,30,20.30
2018,08,20,11,31,20.30
2018,08,20,11,32,20.30
2018,08,20,11,33,20.30
2018,08,20,11,34,20.20
2018,08,20,11,35,20.00
2018,08,20,11,36,19.90
2018,08,20,11,37,19.90
2018,08,20,11,38,19.90
2018,08,20,11,39,19.90
2018,08,20,11,40,19.90
2018,08,20,11,41,19.90
2018,08,20,11,42,20.00
2018,08,20,11,43,20.10
2018,08,20,11,44,20.20
2018,08,20,11,45,20.20
2018,08,20,11,46,20.20
2018,08,20,11,47,20.20
2018,08,20,11,48,20.10
2018,08,20,11,49,20.10
2018,08,20,11,50,20.10
2018,08,20,11,51,20.10
2018,08,20,11,52,20.10
2018,08,20,11,53,20.10
2018,08,20,11,54,20.10
2018,08,20,11,55,20.10
2018,08,20,11,56,20.20
2018,08,20,11,57,20.20
2018,08,20,11,58,20.20
2018,08,20,11,59,20.30
2018,08,20,12,00,20.40
2018,08,20,12,01,20.30
2018,08,20,12,02,20.10
2018,08,20,12,03,20.00
2018,08,20,12,04,20.00
2018,08,20,12,05,20.10
2018,08,20,12,06,20.10
2018,08,20,12,07,20.10
2018,08,20,12,08,20.20
2018,08,20,12,09,20.20
2018,08,20,12,10,20.20
2018,08,20,12,11,20.20
2018,08,20,12,12,20.30
2018,08,20,12,13,20.30
2018,08,20,12,14,20.40
2018,08,20,12,15,20.40
2018,08,20,12,16,20.50
2018,08,20,12,17,20.60
2018,08,20,12,18,20.60
2018,08,20,12,19,20.70
2018,08,20,12,20,20.70
2018,08,20,12,21,20.70
2018,08,20,12,22,20.70
2018,08,20,12,23,20.60
2018,08,20,12,24,20.60
2018,08,20,12,25,20.60
2018,08,20,12,26,20.60
2018,08,20,12,27,20.60
2018,08,20,12,28,20.60
2018,08,20,12,29,20.60
2018,08,20,12,30,20.70
2018,08,20,12,31,20.80
2018,08,20,12,32,20.80
2018,08,20,12,33,20.90
2018,08,20,12,34,21.00
2018,08,20,12,35,21.10
2018,08,20,12,36,21.20
2018,08,20,12,37,21.20
2018,08,20,12,38,21.30
2018,08,20,12,39,21.30
2018,08,20,12,40,21.30
2018,08,20,12,41,21.30
2018,08,20,12,42,21.30
2018,08,20,12,43,21.50
2018,08,20,12,44,21.60
2018,08,20,12,45,21.70
2018,08,20,12,46,21.80
2018,08,20,12,47,21.90
2018,08,20,12,48,21.90
2018,08,20,12,49,21.90
2018,08,20,12,50,21.90
2018,08,20,12,51,21.90
2018,08,20,12,52,21.80
2018,08,20,12,53,21.80
2018,08,20,12,54,21.90
2018,08,20,12,55,21.90
2018,08,20,12,56,22.00
2018,08,20,12,57,22.00
2018,08,20,12,58,22.10
2018,08,20,12,59,22.10
2018,08,20,13,00,22.20
2018,08,20,13,01,22.20
2018,08,20,13,02,22.30
2018,08,20,13,03,22.30
2018,08,20,13,04,22.50
2018,08,20,13,05,22.50
2018,08,20,13,06,22.50
2018,08,20,13,07,22.50
2018,08,20,13,08,22.40
2018,08,20,13,09,22.30
2018,08,20,13,10,22.20
2018,08,20,13,11,22.20
2018,08,20,13,12,22.20
2018,08,20,13,13,22.30
2018,08,20,13,14,22.30
2018,08,20,13,15,22.40
2018,08,20,13,16,22.50
2018,08,20,13,17,22.60
2018,08,20,13,18,22.60
2018,08,20,13,19,22.70
2018,08,20,13,20,22.80
2018,08,20,13,21,22.90
2018,08,20,13,22,23.00
2018,08,20,13,23,23.20
2018,08,20,13,24,23.30
2018,08,20,13,25,23.40
2018,08,20,13,26,23.50
2018,08,20,13,27,23.60
2018,08,20,13,28,23.60
2018,08,20,13,29,23.70
2018,08,20,13,30,23.90
2018,08,20,13,31,24.00
2018,08,20,13,32,24.10
2018,08,20,13,33,24.00
2018,08,20,13,34,23.90
2018,08,20,13,35,23.70
2018,08,20,13,36,23.70
2018,08,20,13,37,23.80
2018,08,20,13,38,23.90
2018,08,20,13,39,23.90
2018,08,20,13,40,23.90
2018,08,20,13,41,23.90
2018,08,20,13,42,24.10
2018,08,20,13,43,24.10
2018,08,20,13,44,24.20
2018,08,20,13,45,24.20
2018,08,20,13,46,24.10
2018,08,20,13,47,24.10
2018,08,20,13,48,23.90
2018,08,20,13,49,23.80
2018,08,20,13,50,23.80
2018,08,20,13,51,23.80
2018,08,20,13,52,23.80
2018,08,20,13,53,23.80
2018,08,20,13,54,23.90
2018,08,20,13,55,24.10
2018,08,20,13,56,24.10
2018,08,20,13,57,24.30
2018,08,20,13,58,24.40
2018,08,20,13,59,24.40
2018,08,20,14,00,24.40
2018,08,20,14,01,24.40
2018,08,20,14,02,24.30
2018,08,20,14,03,24.20
2018,08,20,14,04,24.10
2018,08,20,14,05,24.10
2018,08,20,14,06,24.10
2018,08,20,14,07,24.10
2018,08,20,14,08,24.10
2018,08,20,14,09,24.10
2018,08,20,14,10,24.10
2018,08,20,14,11,24.10
2018,08,20,14,12,24.10
2018,08,20,14,13,24.30
2018,08,20,14,14,24.40
2018,08,20,14,15,24.50
2018,08,20,14,16,24.60
2018,08,20,14,17,24.70
2018,08,20,14,18,24.90
2018,08,20,14,19,25.00
2018,08,20,14,20,25.20
2018,08,20,14,21,25.40
2018,08,20,14,22,25.50
2018,08,20,14,23,25.60
2018,08,20,14,24,25.70
2018,08,20,14,25,25.80
2018,08,20,14,26,25.90
2018,08,20,14,27,26.10
2018,08,20,14,28,26.30
2018,08,20,14,29,26.50
2018,08,20,14,30,26.60
2018,08,20,14,31,26.60
2018,08,20,14,32,26.50
2018,08,20,14,33,26.30
2018,08,20,14,34,26.10
2018,08,20,14,35,25.90
2018,08,20,14,36,25.70
2018,08,20,14,37,25.60
2018,08,20,14,38,25.60
2018,08,20,14,39,25.60
2018,08,20,14,40,25.60
2018,08,20,14,41,25.50
2018,08,20,14,42,25.50
2018,08,20,14,43,25.60
2018,08,20,14,44,25.70
2018,08,20,14,45,25.80
2018,08,20,14,46,25.90
2018,08,20,14,47,26.10
2018,08,20,14,48,26.20
2018,08,20,14,49,26.30
2018,08,20,14,50,26.30
2018,08,20,14,51,26.30
2018,08,20,14,52,26.20
2018,08,20,14,53,26.10
2018,08,20,14,54,26.00
2018,08,20,14,55,26.00
2018,08,20,14,56,26.10
2018,08,20,14,57,26.10
2018,08,20,14,58,26.10
2018,08,20,14,59,25.90
2018,08,20,15,00,25.80
2018,08,20,15,01,25.60
2018,08,20,15,02,25.60
2018,08,20,15,03,25.60
2018,08,20,15,04,25.70
2018,08,20,15,05,25.90
2018,08,20,15,06,25.90
2018,08,20,15,07,26.00
2018,08,20,15,08,26.00
2018,08,20,15,09,26.00
2018,08,20,15,10,26.10
2018,08,20,15,11,26.10
2018,08,20,15,12,26.10
2018,08,20,15,13,26.30
2018,08,20,15,14,26.30
2018,08,20,15,15,26.40
2018,08,20,15,16,26.40
2018,08,20,15,17,26.40
2018,08,20,15,18,26.30
2018,08,20,15,19,26.20
2018,08,20,15,20,26.00
2018,08,20,15,21,25.90
2018,08,20,15,22,25.90
2018,08,20,15,23,25.90
2018,08,20,15,24,25.90
2018,08,20,15,25,26.00
2018,08,20,15,26,26.20
2018,08,20,15,27,26.30
2018,08,20,15,28,26.40
2018,08,20,15,29,26.50
2018,08,20,15,30,26.60
2018,08,20,15,31,26.70
2018,08,20,15,32,26.80
2018,08,20,15,33,26.80
2018,08,20,15,34,26.70
2018,08,20,15,35,26.80
2018,08,20,15,36,26.80
2018,08,20,15,37,26.70
2018,08,20,15,38,26.60
2018,08,20,15,39,26.50
2018,08,20,15,40,26.30
2018,08,20,15,41,26.10
2018,08,20,15,42,25.90
2018,08,20,15,43,25.90
2018,08,20,15,44,25.80
2018,08,20,15,45,25.70
2018,08,20,15,46,25.50
2018,08,20,15,47,25.40
2018,08,20,15,48,25.40
2018,08,20,15,49,25.40
2018,08,20,15,50,25.40
2018,08,20,15,51,25.40
2018,08,20,15,52,25.40
2018,08,20,15,53,25.50
2018,08,20,15,54,25.50
2018,08,20,15,55,25.50
2018,08,20,15,56,25.60
2018,08,20,15,57,25.50
2018,08,20,15,58,25.30
2018,08,20,15,59,25.10
2018,08,20,16,00,25.00
2018,08,20,16,01,24.90
2018,08,20,16,02,24.90
2018,08,20,16,03,25.00
2018,08,20,16,04,25.10
2018,08,20,16,05,25.10
2018,08,20,16,06,25.30
2018,08,20,16,07,25.40
2018,08,20,16,08,25.70
2018,08,20,16,09,25.90
2018,08,20,16,10,26.10
2018,08,20,16,11,26.20
2018,08,20,16,12,26.40
2018,08,20,16,13,26.40
2018,08,20,16,14,26.50
2018,08,20,16,15,26.60
2018,08,20,16,16,26.60
2018,08,20,16,17,26.70
2018,08,20,16,18,26.80
2018,08,20,16,19,26.80
2018,08,20,16,20,26.90
2018,08,20,16,21,27.10
2018,08,20,16,22,27.20
2018,08,20,16,23,27.30
2018,08,20,16,24,27.30
2018,08,20,16,25,27.30
2018,08,20,16,26,27.20
2018,08,20,16,27,27.10
2018,08,20,16,28,27.10
2018,08,20,16,29,27.10
2018,08,20,16,30,27.10
2018,08,20,16,31,27.10
2018,08,20,16,32,27.10
2018,08,20,16,33,27.10
2018,08,20,16,34,27.20
2018,08,20,16,35,27.30
2018,08,20,16,36,27.30
2018,08,20,16,37,27.20
2018,08,20,16,38,27.20
2018,08,20,16,39,27.10
2018,08,20,16,40,26.90
2018,08,20,16,41,26.80
2018,08,20,16,42,26.80
2018,08,20,16,43,26.70
2018,08,20,16,44,26.70
2018,08,20,16,45,26.80
2018,08,20,16,46,26.80
2018,08,20,16,47,26.80
2018,08,20,16,48,26.80
2018,08,20,16,49,26.80
2018,08,20,16,50,26.80
2018,08,20,16,51,26.80
2018,08,20,16,52,26.80
2018,08,20,16,53,26.80
2018,08,20,16,54,26.70
2018,08,20,16,55,26.50
2018,08,20,16,56,26.30
2018,08,20,16,57,26.20
2018,08,20,16,58,26.00
2018,08,20,16,59,25.90
2018,08,20,17,00,25.80
2018,08,20,17,01,25.70
2018,08,20,17,02,25.60
2018,08,20,17,03,25.60
2018,08,20,17,04,25.60
2018,08,20,17,05,25.60
2018,08,20,17,06,25.60
2018,08,20,17,07,25.60
2018,08,20,17,08,25.70
2018,08,20,17,09,25.80
2018,08,20,17,10,25.80
2018,08,20,17,11,25.90
2018,08,20,17,12,25.90
2018,08,20,17,13,25.90
2018,08,20,17,14,25.90
2018,08,20,17,15,26.00
2018,08,20,17,16,26.00
2018,08,20,17,17,26.00
2018,08,20,17,18,26.00
2018,08,20,17,19,26.00